Regional Weather Roundup
Issued by NWS

Home | Current Version | Previous Version | Graphics & Text | Print | Product List | Glossary On
Versions: 1 2 3 4 5 6 7 8 9 10 11 12 13 14 15 16 17 18 19 20 21 22 23 24 25 26 27 28 29 30 31 32 33 34 35 36 37 38 39 40 41 42 43 44 45 46 47 48 49 50
044
ASUS43 KLOT 021903
RWRIL

ILLINOIS REGIONAL WEATHER ROUNDUP
NATIONAL WEATHER SERVICE CHICAGO/ROMEOVILLE IL
200 PM CDT MON MAY 02 2016

NOTE: "FAIR" INDICATES FEW OR NO CLOUDS BELOW 12,000 FEET WITH NO
SIGNIFICANT WEATHER AND/OR OBSTRUCTIONS TO VISIBILITY.

* THESE STATIONS ARE NOT UNDER NWS QUALITY CONTROL. THEY ALSO MAY NOT
  REPORT WEATHER SUCH AS PRECIPITATION OR FOG.

ILZ001-002-007-009-015-016-024-022000-
NORTHWEST ILLINOIS

CITY           SKY/WX    TMP DP  RH WIND       PRES   REMARKS
MOLINE         CLOUDY    61  41  47 E8        30.06S
STERLING*      MOSUNNY   61  45  55 E9        30.06S
$$

ILZ003-004-008-010-011-017-018-022000-
NORTH CENTRAL ILLINOIS

CITY           SKY/WX    TMP DP  RH WIND       PRES   REMARKS
ROCKFORD       CLOUDY    60  36  40 E12       30.07F
FREEPORT*      PTSUNNY   58  40  50 N7        30.07F
DE KALB*       MOSUNNY   59  40  50 NE14G21   30.05S
$$

ILZ005-006-012>014-019>023-022000-
NORTHEAST ILLINOIS

CITY           SKY/WX    TMP DP  RH WIND       PRES   REMARKS
CHICAGO-OHARE  PTSUNNY   57  36  45 NE17G24   30.05S
CHICAGO-MIDWAY MOSUNNY   56  34  43 NE18      30.05S
AURORA         SUNNY     62  40  44 NE16G24   30.04F
LANSING*       SUNNY     54  40  60 N12       30.05F
WAUKEGAN       SUNNY     57  36  45 NE16      30.05S
DUPAGE AIRPORT SUNNY     60  36  40 NE12G26   30.03F
WHEELING       SUNNY     56  35  45 E14G20    30.07S
NORTHERLY ISL    N/A     49  41  74 N10         N/A
NORTHERLY ISL    N/A     49  41  74 N10         N/A
$$

LMZ740>746-022000-
SOUTHERN LAKE MICHIGAN

STATION/POSITION SKY/WX   TEMP    WIND        PRES    VSBY  WAVE
                          AIR SEA DIR/SP/G                  HT/PER
                          (F)     (DEG/KT/KT) (MB)    (MI)  (FT/S)
SOUTHERN BUOY              41 41  360/  8/ 10 1017.8          1/ 4
HARRISON CRIB              45     350/ 11/ 12   N/A
BURNHAM HARBOR             49     340/ 10/ 13   N/A
CALUMET HARBOR             47     350/ 12/ 16 1017.4R
BURNS HARBOR               45      10/ 11/ 15 1018.3S
MICHIGAN CITY              45     350/ 14/ 14   N/A
ST. JOSEPH                 46 48                N/A           3/ 4
$$

ILZ025>027-034>036-040-047-049-050-058-095>099-022000-
WEST-CENTRAL ILLINOIS

CITY           SKY/WX    TMP DP  RH WIND       PRES   REMARKS
QUINCY         CLOUDY    53  47  79 N3        30.06F
MACOMB*        CLOUDY    54  46  73 NE8       30.08F
$$

ILZ028>032-037-038-041>044-048-051>054-059>061-022000-
CENTRAL ILLINOIS

CITY           SKY/WX    TMP DP  RH WIND       PRES   REMARKS
BLOOMINGTON    CLOUDY    56  47  71 NE7       30.05F
DECATUR        CLOUDY    55  46  71 N9        30.04S
PEORIA         CLOUDY    55  43  63 NE5       30.06S
SPRINGFIELD    CLOUDY    54  46  74 N9        30.06F
TAYLORVILLE    NOT AVBL
$$

ILZ033-039-045-046-055>057-062-063-022000-
EAST-CENTRAL ILLINOIS

CITY           SKY/WX    TMP DP  RH WIND       PRES   REMARKS
CHAMPAIGN      PTSUNNY   56  47  71 N9        30.02S
MATTOON        CLOUDY    52  47  83 NW9       30.03S
$$

ILZ079-100>102-022000-
SOUTHWEST ILLINOIS

CITY           SKY/WX    TMP DP  RH WIND       PRES   REMARKS
ALTON          CLOUDY    54  48  82 CALM      30.05F
CAHOKIA*       CLOUDY    56  47  71 N5        30.05F
SPARTA*        CLOUDY    56  48  73 NW3       30.05F
$$

ILZ064>066-069>071-074>076-080>082-084>086-088>090-092>094-022000-
SOUTH-CENTRAL ILLINOIS

CITY           SKY/WX    TMP DP  RH WIND       PRES   REMARKS
CARBONDALE     CLOUDY    59  48  67 N10       30.03F
MARION         CLOUDY    61  50  67 NW6       30.02F
MT. VERNON     CLOUDY    57  48  72 W5        30.03F
SALEM*         CLOUDY    57  49  74 NW9       30.03F
$$

ILZ067-068-072-073-078-083-087-091-022000-
SOUTHEAST ILLINOIS

CITY           SKY/WX    TMP DP  RH WIND       PRES   REMARKS
FLORA*         CLOUDY    58  49  72 NW7       30.02F
HARRISBURG*    CLOUDY    63  51  67 NW8       30.02S
ROBINSON*      CLOUDY    55  50  82 N6        30.03S
$$

ABBREVIATIONS USED IN REMARKS
   TC - TEMPERATURE IN CELSIUS
  WCI - WIND CHILL INDEX
   HX - HEAT INDEX
  VSB - VISIBILITY
$$





USA.gov is the U.S. government's official web portal to all federal, state and local government web resources and services.